2018-104J (43857 NORAD) Tracking and Keplerian Element Data

This shows tracking and keplerian element data for the satellite.

Feedback or suggestion? Click here.




ElementValue
Catalog43857
Name2018-104J
Epoch Orbit440
Epoch Day14.32310351
Epoch Year2019
RAAN159.1501
Inclination85.0348
Eccentricity0.0017082
Argument of Perigee182.7701
Mean Anonmoly177.3984
Mean Motion15.20629917
Decay Rate4.1E-07
L11 43857U 18104J 19014.32310351 .00000041 00000-0 00000+0 0 9998
L22 43857 85.0348 159.1501 0017082 182.7701 177.3984 15.20629917 4402

Live tracking and technical data element details for 2018-104J (NORAD 43857). 2018-104J can be tracked NOW for your location showing map with azimuth and elevation plus other details from your city location.

Track the satellite on the map from your city or location and see movement details for azimuth, elevation, latitude, longitude, range, height, and movement on the map or in text.







IsCatalogInMostPopularTable: catalog: 43857, numindb: 63
Update: records affected: 1



GetName: 43857 2018-104J

Hit Count: updated at: Thu, 23 May 2019 15:48:16 GMT